Dewpoint
65 67 66 65 66 67 66 65 66 66 66 66 66 67 66 67 68 67 67 68 69 68 68 68 70 71 72 72 72 73 73 72 72 72 72 71 70 70 69 70 70 71
65 67 67 65 66 66 66 66 66 66 66 66 66 66 66 68 67 67 67 68 67 66 67 67 68 68 69 71 71 71 71 71 71 73 72 71 71 71 71 71 71 71
65 65 64 64 65 65 65 66 66 66 66 66 66 66 68 67 67 67 66 68 66 66 66 67 67 67 68 68 70 71 71 71 71 71 72 71 71 71 71 71 70 71
64 65 64 64 66 65 65 65 65 66 66 66 65 67 68 67 67 66 66 67 66 66 66 67 67 67 67 68 69 70 71 71 71 71 71 71 71 71 71 71 70 70
64 64 64 65 65 66 65 65 65 65 65 65 66 67 66 65 65 65 65 66 66 66 66 66 66 66 68 68 68 68 69 70 70 70 70 70 70 70 71 71 70 69
63 64 65 65 65 65 65 65 65 65 65 65 66 67 66 65 65 65 65 66 66 66 66 65 65 66 67 67 67 67 67 67 68 68 69 69 69 70 71 71 70 69
62 63 64 64 64 64 65 65 64 66 65 66 66 65 66 65 65 65 66 66 66 66 65 65 64 64 66 66 66 65 66 66 67 67 67 68 69 69 70 70 70 69
63 63 63 63 63 64 65 64 64 64 65 65 64 64 65 65 65 66 66 65 65 65 65 64 64 64 64 65 65 65 65 67 67 67 67 66 67 66 67 69 69 68
63 63 63 63 63 63 63 64 64 64 65 64 64 64 65 65 65 66 66 65 64 64 64 64 64 64 65 65 65 65 66 66 67 67 66 65 64 64 65 66 67 68
62 63 62 63 63 63 63 63 64 64 65 64 64 64 64 64 65 65 65 65 64 64 64 64 64 65 65 65 66 66 66 66 66 66 66 65 65 64 64 65 64 65
62 62 61 62 62 62 62 63 63 63 64 64 64 64 64 64 64 65 65 64 64 63 63 64 65 65 65 65 65 65 65 66 66 65 65 65 64 64 66 64 64 64
61 61 60 61 62 61 61 62 62 62 63 63 64 64 63 63 63 64 65 64 63 63 63 64 64 65 65 64 64 65 65 65 65 64 64 64 64 64 64 64 64 64
59 60 60 60 61 61 61 61 62 62 62 63 64 63 63 63 63 63 63 64 63 63 64 64 64 63 63 63 63 64 65 65 65 65 64 64 63 63 63 63 63 63
59 60 60 61 61 61 61 61 61 61 62 62 62 62 62 62 62 63 63 63 63 63 64 64 62 61 61 61 62 63 64 64 64 65 64 63 63 63 63 63 63 63
59 60 60 60 60 60 60 60 61 61 61 61 61 61 62 62 62 62 62 62 62 62 61 60 60 60 60 60 61 62 63 63 64 64 64 63 63 63 63 63 63 63
59 60 59 60 59 60 60 60 60 60 60 60 60 60 60 62 61 61 61 62 61 59 59 58 58 59 62 63 63 61 61 61 62 62 63 63 63 63 62 62 61 61
58 58 59 59 59 59 60 59 59 60 60 60 60 60 60 61 60 60 61 60 59 57 57 58 57 58 60 59 60 61 60 58 57 59 61 62 60 59 58 58 59 59
58 58 58 58 58 59 59 59 59 59 59 59 60 60 60 60 59 60 60 60 58 57 56 56 56 59 57 58 58 59 60 57 56 57 59 58 57 56 55 56 56 58
57 57 58 57 57 58 59 58 58 58 59 59 59 60 59 59 59 59 60 59 57 56 56 55 54 58 55 56 56 57 58 58 54 55 56 55 54 54 53 54 54 56
57 57 57 57 57 58 58 57 57 58 58 59 59 59 58 58 58 57 58 59 58 56 55 54 53 57 54 54 54 55 56 54 51 52 52 52 52 52 52 52 54 55
56 56 56 56 57 57 56 57 57 57 58 59 57 57 56 56 56 55 56 58 57 56 54 53 53 54 53 52 51 53 54 53 50 50 51 50 51 51 51 52 53 55
56 56 55 56 57 57 56 57 57 57 57 57 56 55 55 55 54 56 54 55 57 56 55 54 53 54 53 51 50 51 54 49 49 49 50 50 49 50 51 52 53 54
56 56 55 56 56 56 56 57 57 56 56 56 53 53 53 54 53 54 55 53 53 53 54 54 54 53 52 51 50 51 52 48 48 49 49 49 49 49 51 52 52 54
56 56 55 56 56 56 56 56 57 56 55 56 53 53 52 52 53 53 53 54 52 51 51 51 53 54 51 51 50 50 52 48 48 48 48 48 49 49 51 51 52 58
56 57 55 55 55 56 56 56 56 56 56 54 54 53 53 53 53 51 52 52 52 51 53 51 51 51 52 51 50 49 50 48 47 47 47 48 48 49 50 51 52 55
55 57 57 56 56 56 56 56 56 55 55 53 53 53 52 52 52 51 50 51 52 51 51 50 50 50 49 51 50 49 49 49 48 47 47 47 48 49 50 50 51 52